NIMBUS 2 DEB, 28612

Orbit data source: Space-Track

NIMBUS 2 DEB, 28612 is space debris in LEO originally from a launch on Sun, 15 May 1966 UTC launched from the Air Force Western Test Range (AFWTR). Debris objects in space refer to the collection of defunct objects orbiting the Earth. Examples of debris include non-operational satellites, rocket bodies, and fragments generated from explosions, collisions, or faulty payload assembly.

Loading next visibility...
NIMBUS 2 DEB details
Identifier
28612, 1966-040AB
Orbit
LEO
Last TLE update2 days ago
Origin
Flag of USGSFC (US)
ManufacturerUnknown
MissionSpacecraft
Bus & MotorUnknown
MassUnknown
Launch date (UTC)
1966-05-15 (59 years ago)
Launch vehicleUnknown
Launch site
Air Force Western Test Range (AFWTR)
Object type
Payload
Rocket body
Debris
Shape & HBRUnknown
Radar Cross SectionSmall (<0.1 m²)

Expand to show TLE details & history

TLE from 2 days ago
0 NIMBUS 2 DEB
1 28612U 66040AB  24347.00025091  .00004922  00000-0  52983-2 0  9998
2 28612 100.3938 171.9580 0043642 351.7513 161.3779 13.73546162624374
Epoch: 2024-12-12T00:00Z
Definitive object data (Epoch: 2024-12-12T00:00:21.678Z)
Latitude26.27513°
Longitude-84.15063°
Altitude1,020.429 km
Speed7.329 km/s
True Right ascension23h 48m 30s
True Declination26° 08' 37"
Sunlit
Object was in daylight at TLE epoch
Visualization TLE readout
Latitude15.26106°
Longitude89.61473°
Altitude960.483 km
Speed7.387 km/s
Apparent Right ascension08h 29m 56s
Apparent Declination-25° 08' 52"
Sunlit
Object is in daylight
Visualization observer readout
Local Sidereal Time14:03:28
Azimuth246.398° WSW
Elevation-11.108°
Doppler factor1
Orbital elements
Apogee altitude1,016.305 km
Perigee altitude952.044 km
Semi-major axis7,362.311 km
Eccentricity0.0043642
Inclination100.3938°
RAAN171.958°
Arg. of periapsis351.7513°
True anomaly161.53677°
Mean anomaly161.3779°
Eccentric anomaly161.45742°
Mean motion3.43575 °/min
BSTAR0.0052983
Orbital period104.78 mins
Loading maneuver chart data...
Loading historical data...
Loading historical data...
Loading historical data...
Loading historical data...
Loading historical data...
Loading historical data...
Loading historical data...

NIMBUS 2 DEB Visibility forecast

Observer location: undefined°, undefined

Span
Click to sort rows by Start time (UTC) header in descending order
Start Az.
Max El. time (UTC)
Max El. Az.
Max El.
End time (UTC)
End Az.
10 mins2024-12-14 00:48:41.897Z34.231° NE2024-12-14 00:53:41.897Z97.419° ESE32.686°2024-12-14 00:58:41.897Z163.818° S
9 mins2024-12-14 02:32:41.897Z350.733° N2024-12-14 02:36:41.897Z300.28° NW28.96°2024-12-14 02:41:41.897Z238.018° WSW
6 mins2024-12-14 10:53:41.897Z83.021° E2024-12-14 10:55:41.897Z60.323° ENE16.73°2024-12-14 10:59:41.897Z18.558° NNE
10 mins2024-12-14 12:33:41.897Z169.77° S2024-12-14 12:38:41.897Z274.598° WNW44.18°2024-12-14 12:43:41.897Z340.456° N
|